OBJECT V, 62396

Orbit data source: Space-Track

You're viewing an Uncataloged Satellite

Recently launched and/or uncataloged satellites may have evolving metadata. Metadata may include but not limited to: Owner, Maufacturer, Bus, Motor, and Mission.

OBJECT V, 62396 is a satellite in LEO that was launched on Sat, 21 Dec 2024 UTC via an FALCON 9 launch vehicle from the Air Force Western Test Range (AFWTR). Unknown objects in Earth's orbit typically refer to objects detected orbiting the Earth but have not yet been identified or cataloged. These objects could be anything from previously untracked satellites, spent rocket stages, debris from satellite collisions, or even natural meteoroids temporarily captured by Earth's gravity.

Loading next visibility...
Identifier
62396, 2024-247V
Orbit
LEO
Country
Flag of TBDTBD
Related business
None
Manufacturer
Unknown
Mission
Operational Commercial Communications
Bus & Motor
Unknown
Mass
Unknown
Launch date (UTC)
2024-12-21 (1 year ago)
Launch vehicle
FALCON 9
Launch site
Air Force Western Test Range (AFWTR)
Object type
Unknown
Shape & HBR
Box, 0.0 m
Radar Cross Section
0.004 m², Small (<0.1 m²)

Expand to show TLE details & history
Last TLE update: 14 hours ago

TLE from 14 hours ago
0 OBJECT V
1 62396U 24247V   26093.97756538  .00074101  00000-0  14361-2 0  9995
2 62396  44.9943 308.5371 0008851 201.7868 158.2647 15.46800966 71963
Epoch: 2026-04-03T23:27Z
TLE epoch observation values (Epoch: 2026-04-03T23:27:41.648Z)
Latitude
-0.00003°
Longitude
124.30959°
Altitude
431.684 km
Speed
7.651 km/s
True Right ascension
20h 34m 08s
True Declination
0° 00' 00"
Sunlit
Object was in daylight at epoch
Visualization orbit readout
Latitude
Unknown
Longitude
Unknown
Altitude
Unknown
Speed
Unknown
Apparent Right ascension
Unknown
Apparent Declination
Unknown
Sunlit
N/A
Visualization observer readout
Local Sidereal Time
19:10:53
Azimuth
Unknown
Elevation
Unknown
Doppler factor
Unknown
Orbital elements
Apogee altitude
433.739 km
Perigee altitude
421.691 km
Semi-major axis
6,805.852 km
Eccentricity
0.00089
Inclination
44.9943°
RAAN
308.5371°
Arg. of periapsis
201.7868°
True anomaly
158.30222°
Mean anomaly
158.2647°
Eccentric anomaly
158.28346°
Mean motion
3.86562 °/min
Orbital period
93.13 mins
BSTAR
0.0014361
Loading maneuver chart data...
Computing Atmospheric mass density...
Loading historical data...
Loading historical data...
Loading historical data...
Loading historical data...
Loading historical data...
Loading historical data...
Loading historical data...

Documentation

Showing up to 5 results
|